This demonstration page uses our WeatherBlox Daily Observations layout. Learn more.

39.29038, -76.61219

Hourly Observations for January 31, 2019

Temp ( °F °C ) Dew Point ( °F °C ) Humidity (%) Winds ( mph kmh ) Pressure ( in mb ) Visibility ( mi km ) Precip ( " mm )
12:54 am 00:54 undefined 10 -12.2 -13 -25 34 34 undefined N/A 30.33 1027 N/A 0 0
1:54 am 01:54 undefined 10 -12.2 -13 -25 34 34 undefined N/A 30.33 1027 N/A 0 0
2:54 am 02:54 undefined 9 -12.8 -11 -23.9 39 39 undefined N/A 30.39 1029 N/A 0 0
3:54 am 03:54 undefined 9 -12.8 -11 -23.9 39 39 undefined N/A 30.39 1029 N/A 0 0
4:54 am 04:54 undefined 9 -12.8 -13 -25 36 36 undefined N/A 30.39 1029 N/A 0 0
5:54 am 05:54 undefined 9 -12.8 -12 -24.4 37 37 undefined N/A 30.42 1030 N/A 0 0
6:54 am 06:54 undefined 9 -12.8 -13 -25 36 36 undefined N/A 30.45 1031 N/A 0 0
7:54 am 07:54 undefined 9 -12.8 -12 -24.4 37 37 undefined N/A 30.48 1032 N/A 0 0
8:54 am 08:54 undefined 12 -11.1 -14 -25.6 29 29 undefined N/A 30.5 1033 N/A 0 0
9:54 am 09:54 undefined 14 -10 -14 -25.6 27 27 undefined N/A 30.5 1033 N/A 0 0
10:54 am 10:54 undefined 14 -10 -15 -26.1 26 26 undefined N/A 30.5 1033 N/A 0 0
11:54 am 11:54 undefined 16 -8.9 -15 -26.1 24 24 undefined N/A 30.42 1030 N/A 0 0
12:54 pm 12:54 undefined 18 -7.8 -15 -26.1 22 22 undefined N/A 30.45 1031 N/A 0 0
1:54 pm 13:54 undefined 21 -6.1 -12 -24.4 22 22 undefined N/A 30.42 1030 N/A 0 0
2:54 pm 14:54 undefined 20 -6.7 -16 -26.7 19 19 undefined N/A 30.42 1030 N/A 0 0
3:54 pm 15:54 undefined 20 -6.7 -14 -25.6 21 21 undefined N/A 30.42 1030 N/A 0 0
4:54 pm 16:54 undefined 20 -6.7 -12 -24.4 23 23 undefined N/A 30.39 1029 N/A 0 0
5:54 pm 17:54 undefined 20 -6.7 -9 -22.8 27 27 undefined N/A 30.39 1029 N/A 0 0
6:54 pm 18:54 undefined 20 -6.7 -10 -23.3 26 26 undefined N/A 30.42 1030 N/A 0 0
7:54 pm 19:54 undefined 20 -6.7 -8 -22.2 28 28 undefined N/A 30.42 1030 N/A 0 0
8:54 pm 20:54 undefined 20 -6.7 -7 -21.7 29 29 undefined N/A 30.42 1030 N/A 0 0
9:54 pm 21:54 undefined 20 -6.7 -6 -21.1 31 31 undefined N/A 30.42 1030 N/A 0 0
10:54 pm 22:54 undefined 19 -7.2 -5 -20.6 34 34 undefined N/A 30.45 1031 N/A 0 0
11:54 pm 23:54 undefined 19 -7.2 0 -17.8 43 43 undefined N/A 30.45 1031 N/A 0 0

Powered by AerisWeather